Terminal Aerodrome Forecast
Issued by NWS

Home | Current Version | Previous Version | Text Only | Print | Product List | Glossary On
Versions: 1 2 3 4 5 6 7 8 9 10 11 12 13 14 15 16 17 18 19
110
FTUS42 KMLB 292340
TAFFPR
TAF
KFPR 292340Z 3000/3024 12008G18KT P6SM VCSH SCT025
      TEMPO 3000/3003 BKN025
     FM300300 12011KT P6SM SCT020 SCT050
     FM301500 13015G24KT P6SM FEW025 SCT040 BKN080=

USA.gov is the U.S. government's official web portal to all federal, state and local government web resources and services.